| time (UTC) | temp F | wind direction | speed MPH | gust MPH | rain 1hr in | rain 24hr in | rain mn in | humidity % | barometer mb |
| 20260510141344 | 67 | 207 | 0.0 | 0.0 | 0.00 | 0.01 | 0.01 | 71 | 1016.5 |
| 20260510140842 | 67 | 206 | 0.0 | 1.0 | 0.00 | 0.01 | 0.01 | 67 | 1016.6 |
| 20260510140341 | 67 | 84 | 0.0 | 1.0 | 0.00 | 0.01 | 0.01 | 67 | 1016.6 |
| 20260510135841 | 67 | 149 | 0.0 | 0.0 | 0.00 | 0.01 | 0.01 | 66 | 1016.6 |
| 20260510135340 | 66 | 82 | 0.0 | 0.0 | 0.00 | 0.01 | 0.01 | 65 | 1016.6 |
| 20260510134845 | 66 | 122 | 0.0 | 0.0 | 0.00 | 0.01 | 0.01 | 64 | 1016.6 |
| 20260510134341 | 66 | 122 | 0.0 | 0.0 | 0.01 | 0.01 | 0.01 | 63 | 1016.7 |
| 20260510133841 | 66 | 122 | 0.0 | 0.0 | 0.01 | 0.01 | 0.01 | 63 | 1016.7 |
| 20260510133342 | 65 | 122 | 0.0 | 0.0 | 0.01 | 0.01 | 0.01 | 63 | 1016.7 |
| 20260510132841 | 65 | 122 | 0.0 | 0.0 | 0.01 | 0.01 | 0.01 | 64 | 1016.7 |
| 20260510132341 | 65 | 122 | 0.0 | 0.0 | 0.01 | 0.01 | 0.01 | 64 | 1016.6 |
| 20260510131840 | 64 | 122 | 0.0 | 0.0 | 0.01 | 0.01 | 0.01 | 64 | 1016.7 |
| 20260510131341 | 64 | 122 | 0.0 | 0.0 | 0.01 | 0.01 | 0.01 | 64 | 1016.6 |
| 20260510130842 | 63 | 122 | 0.0 | 0.0 | 0.01 | 0.01 | 0.01 | 65 | 1016.6 |
| 20260510130340 | 63 | 122 | 0.0 | 0.0 | 0.01 | 0.01 | 0.01 | 65 | 1016.6 |
| 20260510125342 | 63 | 198 | 0.0 | 0.0 | 0.01 | 0.01 | 0.01 | 65 | 1016.4 |
| 20260510124841 | 63 | 198 | 0.0 | 0.0 | 0.01 | 0.01 | 0.01 | 65 | 1016.5 |
| 20260510124340 | 62 | 198 | 0.0 | 0.0 | 0.00 | 0.00 | 0.00 | 65 | 1016.4 |
| 20260510123342 | 62 | 198 | 0.0 | 0.0 | 0.00 | 0.00 | 0.00 | 66 | 1016.6 |
| 20260510122840 | 61 | 198 | 0.0 | 0.0 | 0.00 | 0.00 | 0.00 | 66 | 1016.5 |
| 20260510122340 | 61 | 198 | 0.0 | 0.0 | 0.00 | 0.00 | 0.00 | 66 | 1016.5 |
| 20260510121840 | 60 | 198 | 0.0 | 0.0 | 0.00 | 0.00 | 0.00 | 66 | 1016.4 |
| 20260510120838 | 60 | 198 | 0.0 | 0.0 | 0.00 | 0.00 | 0.00 | 66 | 1016.2 |
| 20260510115840 | 60 | 198 | 0.0 | 0.0 | 0.00 | 0.00 | 0.00 | 67 | 1015.8 |
| 20260510115340 | 0 | 0.0 | 0.0 | 0.00 | 0.00 | 0.00 | 1015.7 | ||
| 20260510114840 | 0 | 0.0 | 0.0 | 0.00 | 0.00 | 0.00 | 1015.6 | ||
| 20260510114336 | 0 | 0.0 | 0.0 | 0.00 | 0.00 | 0.00 | 1015.5 | ||
| 20260510113746 | 0 | 0.0 | 0.0 | 0.00 | 0.00 | 0.00 | 1015.5 | ||
| 20260510113242 | 0 | 0.0 | 0.0 | 0.00 | 0.00 | 0.00 | 1015.5 | ||
| 20260510112719 | 0 | 0.0 | 0.0 | 0.00 | 0.00 | 0.00 | 1015.4 | ||
| 20260510111048 | 0 | 0.0 | 0.0 | 0.00 | 0.00 | 0.00 | 1015.1 | ||
| 20260510110542 | 0 | 0.0 | 0.0 | 0.00 | 0.00 | 0.00 | 1015.0 | ||
| 20260510110042 | 0 | 0.0 | 0.0 | 0.00 | 0.00 | 0.00 | 1015.0 | ||
| 20260510105542 | 0 | 0.0 | 0.0 | 0.00 | 0.00 | 0.00 | 1014.9 | ||
| 20260510105043 | 0 | 203 | 0.0 | 0.0 | 0.00 | 0.00 | 0.00 | 1014.8 | |
| 20260510104446 | 56 | 203 | 0.0 | 0.0 | 0.00 | 0.00 | 0.00 | 68 | 1014.7 |
| 20260510103947 | 56 | 203 | 0.0 | 0.0 | 0.00 | 0.00 | 0.00 | 68 | 1014.7 |
| 20260510102942 | 57 | 198 | 0.0 | 0.0 | 0.00 | 0.00 | 0.00 | 68 | 1014.4 |
| 20260510102444 | 57 | 198 | 0.0 | 0.0 | 0.00 | 0.00 | 0.00 | 68 | 1014.5 |
| 20260510101443 | 57 | 198 | 0.0 | 0.0 | 0.00 | 0.00 | 0.00 | 68 | 1014.4 |
| 20260510100442 | 58 | 198 | 0.0 | 0.0 | 0.00 | 0.00 | 0.00 | 68 | 1014.3 |
| 20260510095943 | 58 | 198 | 0.0 | 0.0 | 0.00 | 0.00 | 0.00 | 68 | 1014.2 |
| 20260510094443 | 58 | 198 | 0.0 | 0.0 | 0.00 | 0.00 | 0.00 | 68 | 1014.1 |
| 20260510093440 | 58 | 198 | 0.0 | 0.0 | 0.00 | 0.00 | 0.00 | 68 | 1013.8 |
| 20260510091938 | 58 | 198 | 0.0 | 0.0 | 0.00 | 0.00 | 0.00 | 68 | 1013.8 |
| 20260510091439 | 58 | 198 | 0.0 | 0.0 | 0.00 | 0.00 | 0.00 | 68 | 1013.9 |
| 20260510090940 | 58 | 198 | 0.0 | 0.0 | 0.00 | 0.00 | 0.00 | 69 | 1013.9 |
| 20260510090439 | 58 | 198 | 0.0 | 0.0 | 0.00 | 0.00 | 0.00 | 69 | 1013.9 |
| 20260510085440 | 59 | 198 | 0.0 | 0.0 | 0.00 | 0.00 | 0.00 | 69 | 1013.9 |
| 20260510084939 | 59 | 198 | 0.0 | 0.0 | 0.00 | 0.00 | 0.00 | 69 | 1013.9 |
| 20260510084441 | 59 | 198 | 0.0 | 0.0 | 0.00 | 0.00 | 0.00 | 69 | 1013.9 |
| 20260510083939 | 59 | 198 | 0.0 | 0.0 | 0.00 | 0.00 | 0.00 | 69 | 1013.8 |
| 20260510082939 | 59 | 198 | 0.0 | 0.0 | 0.00 | 0.00 | 0.00 | 69 | 1013.7 |
| 20260510082439 | 60 | 198 | 0.0 | 0.0 | 0.00 | 0.00 | 0.00 | 69 | 1013.6 |
| 20260510081941 | 60 | 198 | 0.0 | 0.0 | 0.00 | 0.00 | 0.00 | 69 | 1013.6 |
| 20260510081439 | 60 | 198 | 0.0 | 0.0 | 0.00 | 0.00 | 0.00 | 68 | 1013.7 |
| 20260510080939 | 60 | 198 | 0.0 | 0.0 | 0.00 | 0.00 | 0.00 | 68 | 1013.6 |
| 20260510080439 | 60 | 198 | 0.0 | 0.0 | 0.00 | 0.00 | 0.00 | 69 | 1013.5 |
| 20260510075939 | 60 | 198 | 0.0 | 0.0 | 0.00 | 0.00 | 0.00 | 69 | 1013.5 |
| 20260510074940 | 60 | 198 | 0.0 | 0.0 | 0.00 | 0.00 | 0.00 | 69 | 1013.4 |
| 20260510073938 | 60 | 198 | 0.0 | 0.0 | 0.00 | 0.00 | 0.00 | 69 | 1013.3 |
| 20260510073434 | 60 | 198 | 0.0 | 0.0 | 0.00 | 0.00 | 0.00 | 69 | 1013.2 |
| 20260510072931 | 61 | 198 | 0.0 | 0.0 | 0.00 | 0.00 | 0.00 | 69 | 1013.1 |
| 20260510072431 | 61 | 198 | 0.0 | 0.0 | 0.00 | 0.00 | 0.00 | 70 | 1013.1 |
| 20260510071931 | 61 | 198 | 0.0 | 0.0 | 0.00 | 0.00 | 0.00 | 70 | 1013.2 |
| 20260510071430 | 61 | 198 | 0.0 | 0.0 | 0.00 | 0.00 | 0.00 | 70 | 1013.2 |
| 20260510070429 | 61 | 198 | 0.0 | 0.0 | 0.00 | 0.00 | 0.00 | 70 | 1013.2 |
| 20260510065927 | 61 | 198 | 0.0 | 0.0 | 0.00 | 0.00 | 0.00 | 70 | 1013.3 |
| 20260510065523 | 62 | 198 | 0.0 | 0.0 | 0.00 | 0.00 | 0.00 | 71 | 1013.3 |
| 20260510063925 | 62 | 198 | 0.0 | 0.0 | 0.00 | 0.00 | 0.00 | 70 | 1013.3 |
| 20260510063425 | 62 | 198 | 0.0 | 0.0 | 0.00 | 0.00 | 0.00 | 71 | 1013.2 |
| 20260510062923 | 62 | 198 | 0.0 | 0.0 | 0.00 | 0.00 | 0.00 | 71 | 1013.2 |
| 20260510061923 | 62 | 198 | 0.0 | 0.0 | 0.00 | 0.00 | 0.00 | 71 | 1013.1 |
| 20260510061422 | 63 | 198 | 0.0 | 0.0 | 0.00 | 0.00 | 0.00 | 71 | 1013.2 |
| 20260510060918 | 63 | 198 | 0.0 | 0.0 | 0.00 | 0.00 | 0.00 | 72 | 1013.1 |
| 20260510060419 | 63 | 198 | 0.0 | 0.0 | 0.00 | 0.00 | 0.00 | 73 | 1013.1 |
| 20260510055918 | 63 | 198 | 0.0 | 0.0 | 0.00 | 0.00 | 0.00 | 72 | 1013.2 |
| 20260510054918 | 63 | 198 | 0.0 | 0.0 | 0.00 | 0.00 | 0.00 | 73 | 1013.2 |
| 20260510053915 | 64 | 198 | 0.0 | 0.0 | 0.00 | 0.00 | 0.00 | 73 | 1013.1 |
| 20260510053414 | 64 | 198 | 0.0 | 0.0 | 0.00 | 0.00 | 0.00 | 72 | 1013.1 |
| 20260510052914 | 64 | 198 | 0.0 | 0.0 | 0.00 | 0.00 | 0.00 | 72 | 1013.2 |
| 20260510052414 | 64 | 198 | 0.0 | 0.0 | 0.00 | 0.00 | 0.00 | 73 | 1013.2 |
| 20260510051913 | 64 | 198 | 0.0 | 0.0 | 0.00 | 0.00 | 0.00 | 73 | 1013.2 |
| 20260510051405 | 64 | 198 | 0.0 | 0.0 | 0.00 | 0.00 | 0.00 | 73 | 1013.2 |
| 20260510050905 | 64 | 198 | 0.0 | 0.0 | 0.00 | 0.00 | 0.00 | 74 | 1013.2 |
| 20260510050404 | 65 | 198 | 0.0 | 0.0 | 0.00 | 0.00 | 0.00 | 75 | 1013.2 |
| 20260510045905 | 65 | 198 | 0.0 | 0.0 | 0.00 | 0.00 | 0.00 | 75 | 1013.2 |
| 20260510045404 | 65 | 198 | 0.0 | 0.0 | 0.00 | 0.00 | 0.00 | 75 | 1013.1 |
| 20260510044904 | 65 | 198 | 0.0 | 0.0 | 0.00 | 0.00 | 0.00 | 75 | 1013.0 |
| 20260510043906 | 65 | 198 | 0.0 | 0.0 | 0.00 | 0.00 | 0.00 | 75 | 1013.0 |
| 20260510043403 | 65 | 198 | 0.0 | 0.0 | 0.00 | 0.00 | 0.00 | 76 | 1013.1 |
| 20260510042857 | 65 | 198 | 0.0 | 0.0 | 0.00 | 0.00 | 0.00 | 77 | 1013.2 |
| 20260510042357 | 65 | 198 | 0.0 | 0.0 | 0.00 | 0.00 | 0.00 | 77 | 1013.2 |
| 20260510041904 | 65 | 198 | 0.0 | 0.0 | 0.00 | 0.00 | 0.00 | 77 | 1013.3 |
| 20260510041354 | 65 | 203 | 0.0 | 0.0 | 0.00 | 0.00 | 0.00 | 77 | 1013.3 |
| 20260510040853 | 65 | 129 | 0.0 | 0.0 | 0.00 | 0.00 | 0.00 | 78 | 1013.3 |
| 20260510035853 | 66 | 96 | 0.0 | 2.0 | 0.00 | 0.00 | 0.00 | 78 | 1013.4 |
| 20260510034854 | 66 | 112 | 0.0 | 0.0 | 0.00 | 0.00 | 0.00 | 78 | 1013.3 |
| 20260510034352 | 66 | 112 | 0.0 | 0.0 | 0.00 | 0.00 | 0.00 | 78 | 1013.4 |
| 20260510033844 | 66 | 185 | 0.0 | 0.0 | 0.00 | 0.00 | 0.00 | 77 | 1013.4 |
| 20260510033342 | 66 | 224 | 0.0 | 0.0 | 0.00 | 0.00 | 0.00 | 77 | 1013.4 |
| 20260510032843 | 65 | 179 | 0.0 | 0.0 | 0.00 | 0.00 | 0.00 | 78 | 1013.3 |
| 20260510031844 | 65 | 207 | 0.0 | 0.0 | 0.00 | 0.00 | 0.00 | 79 | 1013.2 |
| 20260510031342 | 65 | 207 | 0.0 | 0.0 | 0.00 | 0.00 | 0.00 | 79 | 1013.2 |
| 20260510030842 | 66 | 207 | 0.0 | 0.0 | 0.00 | 0.00 | 0.00 | 79 | 1013.1 |
| 20260510025840 | 66 | 207 | 0.0 | 0.0 | 0.00 | 0.00 | 0.00 | 79 | 1013.0 |
| 20260510025341 | 66 | 207 | 0.0 | 0.0 | 0.00 | 0.00 | 0.00 | 79 | 1012.8 |
| 20260510024840 | 67 | 207 | 0.0 | 0.0 | 0.00 | 0.00 | 0.00 | 79 | 1012.7 |
| 20260510024342 | 67 | 207 | 0.0 | 0.0 | 0.00 | 0.00 | 0.00 | 79 | 1012.6 |
| 20260510023836 | 67 | 207 | 0.0 | 0.0 | 0.00 | 0.00 | 0.00 | 79 | 1012.5 |
| 20260510023330 | 67 | 207 | 0.0 | 0.0 | 0.00 | 0.00 | 0.00 | 79 | 1012.4 |
| 20260510022825 | 67 | 207 | 0.0 | 0.0 | 0.00 | 0.00 | 0.00 | 79 | 1012.3 |
| 20260510022324 | 68 | 207 | 0.0 | 0.0 | 0.00 | 0.00 | 0.00 | 79 | 1012.2 |
| 20260510021822 | 67 | 229 | 0.0 | 0.0 | 0.00 | 0.00 | 0.00 | 79 | 1012.1 |
| 20260510020321 | 67 | 154 | 0.0 | 0.0 | 0.00 | 0.00 | 0.00 | 78 | 1011.7 |
| 20260510015819 | 68 | 154 | 0.0 | 0.0 | 0.00 | 0.00 | 0.00 | 77 | 1011.7 |
| 20260510015318 | 68 | 154 | 0.0 | 0.0 | 0.00 | 0.00 | 0.00 | 77 | 1011.7 |
| 20260510014817 | 68 | 154 | 0.0 | 0.0 | 0.00 | 0.00 | 0.00 | 77 | 1011.5 |
| 20260510014318 | 69 | 154 | 0.0 | 0.0 | 0.00 | 0.00 | 0.00 | 77 | 1011.3 |
| 20260510013818 | 69 | 154 | 0.0 | 0.0 | 0.00 | 0.00 | 0.00 | 76 | 1011.1 |
| 20260510013317 | 69 | 154 | 0.0 | 0.0 | 0.00 | 0.00 | 0.00 | 75 | 1010.9 |
| 20260510012317 | 70 | 154 | 0.0 | 0.0 | 0.00 | 0.00 | 0.00 | 72 | 1010.7 |
| 20260510010811 | 71 | 154 | 0.0 | 0.0 | 0.00 | 0.00 | 0.00 | 70 | 1010.4 |
| 20260510010312 | 71 | 154 | 0.0 | 0.0 | 0.00 | 0.00 | 0.00 | 68 | 1010.3 |
| 20260510005812 | 72 | 154 | 0.0 | 0.0 | 0.00 | 0.00 | 0.00 | 67 | 1010.3 |
| 20260510005308 | 73 | 154 | 0.0 | 0.0 | 0.00 | 0.00 | 0.00 | 66 | 1010.2 |
| 20260510004811 | 74 | 154 | 0.0 | 0.0 | 0.00 | 0.00 | 0.00 | 65 | 1010.1 |
| 20260510004312 | 74 | 154 | 0.0 | 0.0 | 0.00 | 0.00 | 0.00 | 63 | 1009.9 |
| 20260510003807 | 75 | 154 | 0.0 | 0.0 | 0.00 | 0.00 | 0.00 | 61 | 1009.9 |
| 20260510003305 | 76 | 154 | 0.0 | 0.0 | 0.00 | 0.00 | 0.00 | 59 | 1009.9 |
| 20260510002803 | 78 | 154 | 0.0 | 0.0 | 0.00 | 0.00 | 0.00 | 57 | 1009.9 |
| 20260510002306 | 79 | 215 | 0.0 | 0.0 | 0.00 | 0.00 | 0.00 | 56 | 1009.7 |
| 20260510001800 | 79 | 213 | 0.0 | 0.0 | 0.00 | 0.00 | 0.00 | 56 | 1009.7 |
| 20260510001300 | 79 | 227 | 0.0 | 0.0 | 0.00 | 0.00 | 0.00 | 54 | 1009.7 |
| 20260510000259 | 80 | 236 | 0.0 | 3.0 | 0.00 | 0.00 | 0.00 | 53 | 1009.6 |
| 20260509235758 | 80 | 259 | 0.0 | 3.0 | 0.00 | 0.00 | 0.00 | 52 | 1009.7 |
| 20260509235257 | 80 | 250 | 0.0 | 1.0 | 0.00 | 0.00 | 0.00 | 51 | 1009.7 |
| 20260509234757 | 81 | 245 | 0.0 | 1.0 | 0.00 | 0.00 | 0.00 | 52 | 1009.7 |
| 20260509234259 | 80 | 82 | 0.0 | 0.0 | 0.00 | 0.00 | 0.00 | 54 | 1009.6 |
| 20260509232256 | 79 | 193 | 0.0 | 5.0 | 0.00 | 0.00 | 0.00 | 53 | 1009.7 |
| 20260509231256 | 79 | 206 | 1.0 | 4.0 | 0.00 | 0.00 | 0.00 | 53 | 1009.8 |
| 20260509230755 | 79 | 198 | 0.0 | 4.0 | 0.00 | 0.00 | 0.00 | 53 | 1009.7 |
| 20260509230253 | 79 | 238 | 1.0 | 4.0 | 0.00 | 0.00 | 0.00 | 52 | 1009.8 |
| 20260509225754 | 79 | 193 | 1.0 | 4.0 | 0.00 | 0.00 | 0.00 | 52 | 1009.7 |
| 20260509225253 | 78 | 188 | 1.0 | 5.0 | 0.00 | 0.00 | 0.00 | 53 | 1009.7 |
| 20260509224752 | 78 | 242 | 0.0 | 5.0 | 0.00 | 0.00 | 0.00 | 53 | 1009.6 |
| 20260509224251 | 78 | 209 | 0.0 | 3.0 | 0.00 | 0.00 | 0.00 | 53 | 1009.7 |
| 20260509223250 | 78 | 215 | 1.0 | 6.0 | 0.00 | 0.00 | 0.00 | 52 | 1009.6 |
| 20260509222752 | 78 | 295 | 0.0 | 5.0 | 0.00 | 0.00 | 0.00 | 51 | 1009.5 |
| 20260509222248 | 78 | 240 | 0.0 | 4.0 | 0.00 | 0.00 | 0.00 | 50 | 1009.5 |
| 20260509221748 | 79 | 246 | 1.0 | 5.0 | 0.00 | 0.00 | 0.00 | 50 | 1009.5 |
| 20260509221246 | 79 | 234 | 1.0 | 6.0 | 0.00 | 0.00 | 0.00 | 52 | 1009.5 |
| 20260509220745 | 79 | 264 | 1.0 | 6.0 | 0.00 | 0.00 | 0.00 | 50 | 1009.5 |
| 20260509220246 | 79 | 214 | 2.0 | 8.0 | 0.00 | 0.00 | 0.00 | 50 | 1009.4 |
| 20260509215746 | 79 | 278 | 3.0 | 8.0 | 0.00 | 0.00 | 0.00 | 50 | 1009.4 |
| 20260509215235 | 79 | 292 | 4.0 | 9.0 | 0.00 | 0.00 | 0.00 | 50 | 1009.3 |
| 20260509214730 | 79 | 225 | 2.0 | 9.0 | 0.00 | 0.00 | 0.00 | 50 | 1009.4 |
| 20260509213714 | 80 | 272 | 3.0 | 10.0 | 0.00 | 0.00 | 0.00 | 49 | 1009.3 |
| 20260509213207 | 79 | 274 | 3.0 | 10.0 | 0.00 | 0.00 | 0.00 | 49 | 1009.3 |
| 20260509212702 | 80 | 164 | 2.0 | 8.0 | 0.00 | 0.00 | 0.00 | 49 | 1009.2 |
| 20260509212152 | 80 | 290 | 4.0 | 10.0 | 0.00 | 0.00 | 0.00 | 49 | 1009.3 |
| 20260509211149 | 80 | 206 | 3.0 | 9.0 | 0.00 | 0.00 | 0.00 | 49 | 1009.5 |
| 20260509210643 | 79 | 255 | 2.0 | 5.0 | 0.00 | 0.00 | 0.00 | 50 | 1009.3 |
| 20260509210144 | 79 | 303 | 4.0 | 9.0 | 0.00 | 0.00 | 0.00 | 48 | 1009.4 |
| 20260509205644 | 79 | 232 | 5.0 | 11.0 | 0.00 | 0.00 | 0.00 | 48 | 1009.5 |
| 20260509205143 | 79 | 228 | 5.0 | 11.0 | 0.00 | 0.00 | 0.00 | 49 | 1009.6 |
| 20260509204645 | 80 | 233 | 3.0 | 11.0 | 0.00 | 0.00 | 0.00 | 49 | 1009.7 |
| 20260509204143 | 79 | 189 | 5.0 | 9.0 | 0.00 | 0.00 | 0.00 | 50 | 1009.7 |
| 20260509203143 | 79 | 267 | 5.0 | 10.0 | 0.00 | 0.00 | 0.00 | 49 | 1009.8 |
| 20260509202644 | 79 | 265 | 6.0 | 11.0 | 0.00 | 0.00 | 0.00 | 49 | 1009.9 |
| 20260509202144 | 78 | 243 | 5.0 | 11.0 | 0.00 | 0.00 | 0.00 | 50 | 1009.9 |
| 20260509201141 | 78 | 214 | 3.0 | 8.0 | 0.00 | 0.00 | 0.00 | 51 | 1010.0 |
| 20260509200137 | 79 | 238 | 5.0 | 12.0 | 0.00 | 0.00 | 0.00 | 50 | 1010.0 |
| 20260509195629 | 79 | 245 | 2.0 | 12.0 | 0.00 | 0.00 | 0.00 | 49 | 1010.0 |
| 20260509195122 | 79 | 256 | 2.0 | 8.0 | 0.00 | 0.00 | 0.00 | 49 | 1010.0 |
| 20260509194624 | 79 | 209 | 4.0 | 12.0 | 0.00 | 0.00 | 0.00 | 50 | 1010.1 |
| 20260509193620 | 78 | 256 | 5.0 | 12.0 | 0.00 | 0.00 | 0.00 | 50 | 1010.0 |
| 20260509192621 | 79 | 217 | 2.0 | 7.0 | 0.00 | 0.00 | 0.00 | 51 | 1010.1 |
| 20260509192117 | 79 | 295 | 2.0 | 12.0 | 0.00 | 0.00 | 0.00 | 52 | 1010.1 |
| 20260509191617 | 79 | 220 | 2.0 | 12.0 | 0.00 | 0.00 | 0.00 | 50 | 1010.1 |
| 20260509191120 | 79 | 321 | 3.0 | 13.0 | 0.00 | 0.00 | 0.00 | 52 | 1010.1 |
| 20260509190618 | 78 | 184 | 3.0 | 13.0 | 0.00 | 0.00 | 0.00 | 52 | 1010.2 |
| 20260509190115 | 78 | 236 | 3.0 | 11.0 | 0.00 | 0.00 | 0.00 | 53 | 1010.4 |
| 20260509185614 | 77 | 231 | 4.0 | 9.0 | 0.00 | 0.00 | 0.00 | 51 | 1010.5 |
| 20260509185113 | 78 | 245 | 6.0 | 15.0 | 0.00 | 0.00 | 0.00 | 51 | 1010.4 |
| 20260509184613 | 78 | 211 | 7.0 | 15.0 | 0.00 | 0.00 | 0.00 | 51 | 1010.4 |
| 20260509184114 | 78 | 222 | 6.0 | 13.0 | 0.00 | 0.00 | 0.00 | 53 | 1010.6 |
| 20260509183611 | 78 | 253 | 6.0 | 13.0 | 0.00 | 0.00 | 0.00 | 51 | 1010.6 |
| 20260509182611 | 78 | 218 | 6.0 | 11.0 | 0.00 | 0.00 | 0.00 | 54 | 1010.8 |
| 20260509182113 | 78 | 271 | 5.0 | 11.0 | 0.00 | 0.00 | 0.00 | 53 | 1010.8 |
| 20260509175108 | 76 | 198 | 4.0 | 11.0 | 0.00 | 0.00 | 0.00 | 60 | 1010.9 |
| 20260509174606 | 76 | 245 | 4.0 | 12.0 | 0.00 | 0.00 | 0.00 | 58 | 1010.9 |
| 20260509173607 | 76 | 244 | 4.0 | 12.0 | 0.00 | 0.00 | 0.00 | 57 | 1010.9 |
| 20260509173105 | 76 | 193 | 4.0 | 12.0 | 0.00 | 0.00 | 0.00 | 58 | 1010.8 |
| 20260509172103 | 75 | 246 | 2.0 | 9.0 | 0.00 | 0.00 | 0.00 | 60 | 1010.9 |
| 20260509171604 | 75 | 167 | 2.0 | 9.0 | 0.00 | 0.00 | 0.00 | 62 | 1010.8 |
| 20260509171102 | 74 | 212 | 3.0 | 6.0 | 0.00 | 0.00 | 0.00 | 64 | 1010.9 |
| 20260509170601 | 74 | 198 | 3.0 | 8.0 | 0.00 | 0.00 | 0.00 | 64 | 1011.0 |
| 20260509170101 | 74 | 221 | 3.0 | 8.0 | 0.00 | 0.00 | 0.00 | 63 | 1010.9 |
| 20260509165600 | 75 | 141 | 1.0 | 5.0 | 0.00 | 0.00 | 0.00 | 62 | 1011.1 |
| 20260509165100 | 75 | 191 | 2.0 | 8.0 | 0.00 | 0.00 | 0.00 | 63 | 1011.3 |
| 20260509164600 | 75 | 195 | 2.0 | 8.0 | 0.00 | 0.00 | 0.00 | 62 | 1011.3 |
| 20260509164058 | 74 | 86 | 3.0 | 8.0 | 0.00 | 0.00 | 0.00 | 63 | 1011.3 |
| 20260509163057 | 73 | 128 | 3.0 | 7.0 | 0.00 | 0.00 | 0.00 | 66 | 1011.4 |
| 20260509162555 | 73 | 206 | 2.0 | 7.0 | 0.00 | 0.00 | 0.00 | 64 | 1011.5 |
| 20260509162055 | 73 | 250 | 1.0 | 6.0 | 0.00 | 0.00 | 0.00 | 68 | 1011.5 |
| 20260509161055 | 72 | 62 | 3.0 | 9.0 | 0.00 | 0.00 | 0.00 | 70 | 1011.5 |
| 20260509160556 | 72 | 242 | 2.0 | 8.0 | 0.00 | 0.00 | 0.00 | 69 | 1011.5 |
| 20260509155035 | 70 | 139 | 2.0 | 8.0 | 0.00 | 0.00 | 0.00 | 73 | 1011.3 |
| 20260509154524 | 70 | 241 | 3.0 | 8.0 | 0.00 | 0.00 | 0.00 | 73 | 1011.2 |
| 20260509153514 | 70 | 223 | 3.0 | 7.0 | 0.00 | 0.00 | 0.00 | 74 | 1011.1 |
| 20260509153003 | 69 | 186 | 2.0 | 7.0 | 0.00 | 0.00 | 0.00 | 75 | 1011.1 |
| 20260509152456 | 69 | 198 | 1.0 | 5.0 | 0.00 | 0.00 | 0.00 | 77 | 1011.1 |
| 20260509151950 | 68 | 126 | 3.0 | 9.0 | 0.00 | 0.00 | 0.00 | 77 | 1011.1 |
| 20260509150934 | 67 | 276 | 2.0 | 7.0 | 0.00 | 0.00 | 0.00 | 79 | 1011.1 |
| 20260509150427 | 67 | 249 | 2.0 | 7.0 | 0.00 | 0.00 | 0.00 | 79 | 1011.2 |
| 20260509145413 | 66 | 190 | 3.0 | 7.0 | 0.00 | 0.00 | 0.00 | 79 | 1011.2 |
| 20260509143849 | 65 | 231 | 2.0 | 6.0 | 0.00 | 0.00 | 0.00 | 80 | 1011.3 |
| 20260509143346 | 64 | 139 | 4.0 | 12.0 | 0.00 | 0.00 | 0.00 | 79 | 1011.3 |
| 20260509142834 | 64 | 203 | 4.0 | 12.0 | 0.00 | 0.00 | 0.00 | 79 | 1011.4 |